When you browse on this site, cookies collect data to enhance your experience and personalize the content and advertising you see.
Visit our Privacy Policy to learn more. By continuing to use the site, you agree to this use of cookies and data.
  • In Sweden
  • List of Countries
  • For 7 days
  • Water Temperature
  • Satellite Maps
  • Weather Map
  • Weather Widgets
  • user-avatar
    Login

    Hourly Weather Onverwacht

    Today, 16 June, Sunday

    Time Temperature Precipitation Wind Pressure Humidity
    00:00 +23°C° 0.2 mm 0 mps 758 mmHg 98%
    01:00 +23°C° 0.2 mm 0 mps 758 mmHg 98%
    02:00 +23°C° 0.2 mm 0 mps 757 mmHg 99%
    03:00 +23°C° 0 mm 0 mps 757 mmHg 99%
    04:00 +23°C° 0 mm 0 mps 758 mmHg 99%
    05:00 +23°C° 0 mm 0 mps 758 mmHg 99%
    06:00 +24°C° 0 mm 0 mps 758 mmHg 95%
    07:00 +27°C° 0 mm 1 mps 759 mmHg 91%
    08:00 +28°C° 0 mm 1 mps 759 mmHg 88%
    09:00 +29°C° 0.9 mm 1 mps 759 mmHg 84%
    10:00 +31°C° 0.9 mm 1 mps 759 mmHg 80%
    11:00 +32°C° 0.9 mm 1 mps 758 mmHg 76%
    12:00 +31°C° 1.6 mm 1 mps 758 mmHg 80%
    13:00 +31°C° 1.6 mm 1 mps 757 mmHg 85%
    14:00 +30°C° 1.6 mm 1 mps 756 mmHg 89%
    15:00 +30°C° 1.1 mm 1 mps 756 mmHg 91%
    16:00 +29°C° 1.1 mm 1 mps 756 mmHg 93%
    17:00 +28°C° 1.1 mm 1 mps 756 mmHg 95%
    18:00 +28°C° 0.2 mm 1 mps 757 mmHg 96%
    19:00 +27°C° 0.2 mm 1 mps 758 mmHg 97%
    20:00 +26°C° 0.2 mm 1 mps 758 mmHg 98%
    21:00 +26°C° 0 mm 1 mps 759 mmHg 98%
    22:00 +26°C° 0 mm 1 mps 759 mmHg 98%
    23:00 +26°C° 0 mm 1 mps 759 mmHg 98%

    Tomorrow, 17 June, Monday

    Time Temperature Precipitation Wind Pressure Humidity
    00:00 +25°C° 0 mm 1 mps 759 mmHg 98%
    01:00 +25°C° 0 mm 1 mps 758 mmHg 98%
    02:00 +25°C° 0 mm 1 mps 758 mmHg 98%
    03:00 +25°C° 0 mm 1 mps 758 mmHg 98%
    04:00 +24°C° 0 mm 1 mps 758 mmHg 98%
    05:00 +24°C° 0 mm 1 mps 758 mmHg 98%
    06:00 +25°C° 0 mm 1 mps 759 mmHg 94%
    07:00 +27°C° 0 mm 1 mps 759 mmHg 90%
    08:00 +28°C° 0 mm 2 mps 759 mmHg 86%
    09:00 +30°C° 0 mm 2 mps 759 mmHg 74%
    10:00 +32°C° 0 mm 2 mps 759 mmHg 63%
    11:00 +34°C° 0 mm 2 mps 760 mmHg 52%
    12:00 +34°C° 0.3 mm 2 mps 759 mmHg 57%
    13:00 +34°C° 0.3 mm 2 mps 758 mmHg 62%
    14:00 +32°C° 0.3 mm 2 mps 757 mmHg 68%
    15:00 +31°C° 0.5 mm 2 mps 757 mmHg 75%
    16:00 +29°C° 0.5 mm 2 mps 757 mmHg 83%
    17:00 +28°C° 0.5 mm 2 mps 757 mmHg 91%
    18:00 +27°C° 0 mm 1 mps 758 mmHg 93%
    19:00 +26°C° 0 mm 1 mps 758 mmHg 95%
    20:00 +26°C° 0 mm 1 mps 759 mmHg 98%
    21:00 +26°C° 0 mm 1 mps 759 mmHg 98%
    22:00 +26°C° 0 mm 1 mps 759 mmHg 98%
    23:00 +24°C° 0 mm 0 mps 760 mmHg 98%

    Day after tomorrow, 18 June, Tuesday

    Time Temperature Precipitation Wind Pressure Humidity
    00:00 +23°C° 0 mm 0 mps 759 mmHg 98%
    01:00 +23°C° 0 mm 0 mps 758 mmHg 98%
    02:00 +23°C° 0 mm 0 mps 758 mmHg 99%
    03:00 +23°C° 0 mm 0 mps 758 mmHg 99%
    04:00 +25°C° 0 mm 1 mps 758 mmHg 98%
    05:00 +25°C° 0 mm 1 mps 758 mmHg 98%
    06:00 +26°C° 0 mm 1 mps 759 mmHg 92%
    07:00 +27°C° 0 mm 1 mps 759 mmHg 86%
    08:00 +29°C° 0 mm 1 mps 759 mmHg 80%
    09:00 +29°C° 0.1 mm 1 mps 759 mmHg 76%
    10:00 +30°C° 0.1 mm 1 mps 759 mmHg 72%
    11:00 +31°C° 0.1 mm 1 mps 759 mmHg 68%
    12:00 +30°C° 1 mm 2 mps 759 mmHg 76%
    13:00 +29°C° 1 mm 2 mps 758 mmHg 84%
    14:00 +28°C° 1 mm 2 mps 757 mmHg 92%
    15:00 +27°C° 1.4 mm 2 mps 757 mmHg 94%
    16:00 +26°C° 1.4 mm 2 mps 757 mmHg 96%
    17:00 +26°C° 1.4 mm 2 mps 758 mmHg 98%
    18:00 +25°C° 0.7 mm 1 mps 758 mmHg 98%
    19:00 +25°C° 0.7 mm 1 mps 758 mmHg 98%
    20:00 +23°C° 0.7 mm 0 mps 759 mmHg 99%
    21:00 +25°C° 0.7 mm 1 mps 759 mmHg 99%
    22:00 +25°C° 0.7 mm 1 mps 759 mmHg 99%
    23:00 +25°C° 0.7 mm 1 mps 760 mmHg 99%

    19 June, Wednesday

    Time Temperature Precipitation Wind Pressure Humidity
    00:00 +25°C° 2.3 mm 1 mps 759 mmHg 99%
    01:00 +24°C° 2.3 mm 1 mps 759 mmHg 99%
    02:00 +22°C° 2.3 mm 0 mps 758 mmHg 99%
    03:00 +22°C° 0.1 mm 0 mps 758 mmHg 99%
    04:00 +22°C° 0.1 mm 0 mps 758 mmHg 99%
    05:00 +24°C° 0.1 mm 1 mps 758 mmHg 99%
    06:00 +25°C° 0 mm 1 mps 759 mmHg 98%
    07:00 +25°C° 0 mm 1 mps 759 mmHg 97%
    08:00 +24°C° 0 mm 0 mps 760 mmHg 96%
    09:00 +28°C° 0 mm 1 mps 760 mmHg 86%
    10:00 +30°C° 0 mm 1 mps 760 mmHg 75%
    11:00 +32°C° 0 mm 1 mps 760 mmHg 64%
    12:00 +33°C° 0 mm 1 mps 759 mmHg 56%
    13:00 +34°C° 0 mm 1 mps 758 mmHg 49%
    14:00 +35°C° 0 mm 1 mps 758 mmHg 41%
    15:00 +33°C° 0.1 mm 1 mps 758 mmHg 53%
    16:00 +31°C° 0.1 mm 1 mps 758 mmHg 65%
    17:00 +29°C° 0.1 mm 1 mps 757 mmHg 77%
    18:00 +28°C° 0.1 mm 1 mps 758 mmHg 82%
    19:00 +27°C° 0.1 mm 1 mps 758 mmHg 88%
    20:00 +26°C° 0.1 mm 1 mps 759 mmHg 94%
    21:00 +25°C° 0 mm 1 mps 759 mmHg 95%
    22:00 +25°C° 0 mm 1 mps 759 mmHg 95%
    23:00 +25°C° 0 mm 1 mps 760 mmHg 96%

    20 June, Thursday

    Time Temperature Precipitation Wind Pressure Humidity
    00:00 +25°C° 0 mm 1 mps 759 mmHg 96%
    01:00 +25°C° 0 mm 1 mps 759 mmHg 96%
    02:00 +24°C° 0 mm 1 mps 758 mmHg 97%
    03:00 +24°C° 0.4 mm 1 mps 758 mmHg 97%
    04:00 +25°C° 0.4 mm 1 mps 759 mmHg 97%
    05:00 +25°C° 0.4 mm 1 mps 759 mmHg 97%
    06:00 +25°C° 4.5 mm 1 mps 759 mmHg 97%
    07:00 +25°C° 4.5 mm 1 mps 760 mmHg 98%
    08:00 +25°C° 4.5 mm 2 mps 760 mmHg 98%
    09:00 +26°C° 0.8 mm 1 mps 760 mmHg 98%
    10:00 +26°C° 0.8 mm 1 mps 760 mmHg 97%
    11:00 +26°C° 0.8 mm 1 mps 760 mmHg 97%
    12:00 +26°C° 1 mm 1 mps 760 mmHg 97%
    13:00 +27°C° 1 mm 1 mps 760 mmHg 97%
    14:00 +27°C° 1 mm 1 mps 759 mmHg 97%
    15:00 +27°C° 0.7 mm 1 mps 759 mmHg 97%
    16:00 +27°C° 0.7 mm 1 mps 759 mmHg 98%
    17:00 +26°C° 0.7 mm 1 mps 759 mmHg 98%
    18:00 +26°C° 0.3 mm 1 mps 759 mmHg 98%
    19:00 +26°C° 0.3 mm 1 mps 760 mmHg 98%
    20:00 +25°C° 0.3 mm 1 mps 760 mmHg 98%
    21:00 +25°C° 0.2 mm 1 mps 760 mmHg 98%
    22:00 +23°C° 0.2 mm 0 mps 760 mmHg 98%
    23:00 +23°C° 0.2 mm 0 mps 760 mmHg 99%

    21 June, Friday

    Time Temperature Precipitation Wind Pressure Humidity
    00:00 +23°C° 0.3 mm 0 mps 760 mmHg 99%
    01:00 +22°C° 0.3 mm 0 mps 760 mmHg 99%
    02:00 +22°C° 0.3 mm 0 mps 759 mmHg 99%
    03:00 +24°C° 0.6 mm 1 mps 759 mmHg 99%
    04:00 +24°C° 0.6 mm 1 mps 759 mmHg 99%
    05:00 +24°C° 0.6 mm 1 mps 760 mmHg 99%
    06:00 +24°C° 0.4 mm 1 mps 760 mmHg 98%
    07:00 +24°C° 0.4 mm 1 mps 761 mmHg 97%
    08:00 +24°C° 0.4 mm 2 mps 761 mmHg 96%
    09:00 +26°C° 0.1 mm 2 mps 761 mmHg 87%
    10:00 +28°C° 0.1 mm 1 mps 761 mmHg 78%
    11:00 +29°C° 0.1 mm 1 mps 761 mmHg 69%
    12:00 +30°C° 0 mm 1 mps 761 mmHg 66%
    13:00 +31°C° 0 mm 1 mps 760 mmHg 62%
    14:00 +31°C° 0 mm 1 mps 759 mmHg 59%
    15:00 +30°C° 0 mm 1 mps 759 mmHg 65%
    16:00 +29°C° 0 mm 1 mps 759 mmHg 71%
    17:00 +28°C° 0 mm 1 mps 759 mmHg 77%
    18:00 +27°C° 0 mm 1 mps 759 mmHg 82%
    19:00 +26°C° 0 mm 1 mps 760 mmHg 87%
    20:00 +25°C° 0 mm 1 mps 760 mmHg 92%
    21:00 +25°C° 0 mm 1 mps 761 mmHg 93%
    22:00 +25°C° 0 mm 1 mps 761 mmHg 94%
    23:00 +24°C° 0 mm 1 mps 761 mmHg 95%
    Show more